CW3518 Weather Reports


time (UTC)temp
C
wind
direction
speed
KPH
gust
KPH
rain 1hr
cm
rain 24hr
cm
rain mn
cm
humidity
%
barometer
mb
20260905000006 35 155 24.1 24.1 0.00 0.08 0.08 40 1011.2
20260904235506 35 149 22.5 24.1 0.00 0.08 0.08 40 1011.2
20260904235005 35 164 19.3 24.1 0.00 0.08 0.08 40 1011.2
20260904234506 35 165 16.1 27.4 0.00 0.08 0.08 40 1011.2
20260904234005 35 152 12.9 27.4 0.00 0.08 0.08 40 1011.2
20260904233505 35 138 22.5 22.5 0.00 0.08 0.08 41 1011.2
20260904233005 35 127 19.3 24.1 0.00 0.08 0.08 40 1011.1
20260904232505 36 138 24.1 25.7 0.00 0.08 0.08 40 1011.1
20260904232006 36 168 14.5 25.7 0.00 0.08 0.08 40 1011.1
20260904231505 36 156 20.9 24.1 0.00 0.08 0.08 40 1011.1
20260904231005 36 171 11.3 19.3 0.00 0.08 0.08 40 1011.2
20260904230505 36 142 12.9 24.1 0.00 0.08 0.08 40 1011.2
20260904230005 35 172 12.9 32.2 0.00 0.08 0.08 40 1011.2
20260904225505 36 161 17.7 32.2 0.00 0.08 0.08 40 1011.2
20260904225005 36 111 20.9 29.0 0.00 0.08 0.08 40 1011.2
20260904224505 36 168 12.9 29.0 0.00 0.08 0.08 40 1011.3
20260904224005 36 144 11.3 20.9 0.00 0.08 0.08 40 1011.3
20260904223505 35 121 20.9 20.9 0.00 0.08 0.08 40 1011.3
20260904223035 36 150 16.1 24.1 0.00 0.08 0.08 39 1011.4
20260904222505 36 159 24.1 30.6 0.00 0.08 0.08 39 1011.4
20260904222006 36 138 22.5 30.6 0.00 0.08 0.08 39 1011.4
20260904221006 36 205 25.7 27.4 0.00 0.08 0.08 40 1011.4
20260904220505 36 183 20.9 24.1 0.00 0.08 0.08 40 1011.4
20260904220005 36 197 12.9 24.1 0.00 0.08 0.08 41 1011.5
20260904215505 36 190 17.7 24.1 0.00 0.08 0.08 41 1011.5
20260904215005 36 143 14.5 25.7 0.00 0.08 0.08 41 1011.5
20260904214504 36 176 8.0 29.0 0.00 0.08 0.08 42 1011.6
20260904214005 35 141 19.3 29.0 0.00 0.08 0.08 42 1011.5
20260904213504 35 123 20.9 25.7 0.00 0.08 0.08 42 1011.6
20260904213004 35 153 9.7 30.6 0.00 0.08 0.08 43 1011.8
20260904212504 35 165 27.4 30.6 0.00 0.08 0.08 42 1011.7
20260904212004 36 211 16.1 27.4 0.00 0.08 0.08 42 1011.8
20260904211004 35 201 24.1 27.4 0.00 0.08 0.08 42 1011.9
20260904210504 35 170 12.9 25.7 0.00 0.08 0.08 41 1012.0
20260904205504 35 164 20.9 24.1 0.00 0.08 0.08 40 1012.2
20260904204504 35 145 22.5 25.7 0.00 0.08 0.08 40 1012.3
20260904203504 35 165 14.5 24.1 0.00 0.08 0.08 40 1012.4
20260904203004 35 147 12.9 25.7 0.00 0.08 0.08 41 1012.4
20260904202504 35 178 19.3 25.7 0.00 0.08 0.08 42 1012.5
20260904202004 35 169 24.1 29.0 0.00 0.08 0.08 41 1012.5
20260904201504 35 134 24.1 29.0 0.00 0.08 0.08 41 1012.6
20260904201004 35 165 19.3 29.0 0.00 0.08 0.08 42 1012.6
20260904200504 35 168 12.9 25.7 0.00 0.08 0.08 43 1012.8
20260904195004 35 168 19.3 27.4 0.00 0.08 0.08 43 1012.9
20260904194003 35 168 17.7 25.7 0.00 0.08 0.08 43 1013.0
20260904193503 35 216 14.5 30.6 0.00 0.08 0.08 45 1013.1
20260904193003 35 175 12.9 30.6 0.00 0.08 0.08 44 1013.1
20260904192503 34 206 20.9 30.6 0.00 0.08 0.08 44 1013.1
20260904192003 34 215 19.3 32.2 0.00 0.08 0.08 44 1013.2
20260904191503 34 201 14.5 32.2 0.00 0.08 0.08 43 1013.2
20260904191003 35 209 30.6 30.6 0.00 0.08 0.08 42 1013.3
20260904190503 34 132 29.0 33.8 0.00 0.08 0.08 42 1013.4
20260904190003 33 194 11.3 33.8 0.00 0.08 0.08 44 1013.5
20260904184503 34 150 20.9 32.2 0.00 0.08 0.08 45 1013.6
20260904184002 33 155 30.6 32.2 0.00 0.08 0.08 45 1013.6
20260904182503 33 145 27.4 29.0 0.00 0.08 0.08 41 1013.9
20260904182002 33 198 16.1 29.0 0.00 0.08 0.08 41 1014.1
20260904181502 33 223 25.7 30.6 0.00 0.08 0.08 42 1014.1
20260904181002 32 201 25.7 30.6 0.00 0.08 0.08 42 1014.2
20260904180502 32 197 22.5 30.6 0.00 0.08 0.08 42 1014.2
20260904175502 32 211 20.9 30.6 0.00 0.08 0.08 47 1014.3
20260904175002 32 168 20.9 30.6 0.00 0.08 0.08 45 1014.3
20260904174532 33 188 20.9 30.6 0.00 0.08 0.08 44 1014.3
20260904174003 32 161 19.3 25.7 0.00 0.08 0.08 50 1014.3
20260904173502 32 201 22.5 27.4 0.00 0.08 0.08 51 1014.4
20260904173002 32 163 22.5 27.4 0.00 0.08 0.08 50 1014.5
20260904172002 31 191 11.3 25.7 0.00 0.08 0.08 56 1014.8
20260904171502 31 203 19.3 27.4 0.00 0.08 0.08 57 1014.7
20260904171001 31 223 25.7 27.4 0.00 0.08 0.08 57 1014.8
20260904165501 31 175 17.7 22.5 0.00 0.08 0.08 55 1014.9
20260904165001 31 213 20.9 24.1 0.00 0.08 0.08 55 1015.0
20260904164502 30 185 12.9 29.0 0.00 0.08 0.08 56 1015.1
20260904164002 30 215 25.7 29.0 0.00 0.08 0.08 55 1015.1
20260904163502 30 204 19.3 24.1 0.00 0.08 0.08 57 1015.1
20260904162501 30 204 20.9 27.4 0.00 0.08 0.08 58 1015.1
20260904162001 30 215 19.3 27.4 0.00 0.08 0.08 62 1015.1
20260904161001 29 195 19.3 22.5 0.00 0.08 0.08 66 1015.2
20260904160001 28 209 20.9 22.5 0.03 0.08 0.08 66 1015.2
20260904155501 28 202 17.7 22.5 0.03 0.08 0.08 67 1015.2
20260904155001 28 217 12.9 22.5 0.03 0.08 0.08 68 1015.1
20260904154501 28 198 17.7 22.5 0.05 0.08 0.08 68 1015.2
20260904154001 28 196 19.3 22.5 0.08 0.08 0.08 69 1015.1
20260904153001 28 158 11.3 20.9 0.08 0.08 0.08 71 1015.1
20260904152501 28 194 16.1 20.9 0.08 0.08 0.08 71 1015.1
20260904152001 28 192 14.5 29.0 0.08 0.08 0.08 71 1015.0
20260904151501 28 195 22.5 29.0 0.08 0.08 0.08 69 1015.0
20260904145501 27 170 12.9 19.3 0.05 0.05 0.05 81 1015.0
20260904144501 27 210 9.7 14.5 0.03 0.03 0.03 80 1015.0
20260904143500 27 184 9.7 17.7 0.00 0.00 0.00 80 1014.9
20260904143000 27 195 14.5 19.3 0.00 0.00 0.00 78 1014.9
20260904142530 27 178 16.1 19.3 0.00 0.00 0.00 80 1014.8
20260904142000 27 177 12.9 19.3 0.00 0.00 0.00 82 1014.9
20260904141500 27 160 12.9 19.3 0.00 0.00 0.00 83 1014.8
20260904141001 26 163 11.3 19.3 0.00 0.00 0.00 84 1014.8
20260904140500 26 144 14.5 19.3 0.00 0.00 0.00 85 1014.8
20260904140000 26 169 16.1 20.9 0.00 0.00 0.00 85 1014.8
20260904135500 26 0 0.0 20.9 0.00 0.00 0.00 86 1014.8
20260904135000 26 131 16.1 19.3 0.00 0.00 0.00 87 1014.7
20260904134502 26 147 12.9 20.9 0.00 0.00 0.00 88 1014.7
20260904134000 26 0 0.0 20.9 0.00 0.00 0.00 88 1014.6
20260904133501 26 0 0.0 20.9 0.00 0.00 0.00 88 1014.6
20260904132001 26 156 8.0 17.7 0.00 0.00 0.00 89 1014.4
20260904131500 26 146 14.5 16.1 0.00 0.00 0.00 89 1014.4
20260904130501 26 137 9.7 16.1 0.00 0.00 0.00 89 1014.4
20260904125459 25 145 11.3 14.5 0.00 0.00 0.00 89 1014.3
20260904124959 25 146 11.3 17.7 0.00 0.00 0.00 89 1014.2
20260904123959 25 157 14.5 16.1 0.00 0.00 0.00 89 1014.1
20260904123459 25 167 9.7 17.7 0.00 0.00 0.00 89 1014.1
20260904122959 25 138 11.3 17.7 0.00 0.00 0.00 89 1014.1
20260904122459 25 116 9.7 16.1 0.00 0.00 0.00 89 1014.1
20260904121959 25 132 11.3 14.5 0.00 0.00 0.00 89 1014.0
20260904120959 25 142 12.9 12.9 0.00 0.00 0.00 90 1013.9
20260904120459 25 143 11.3 16.1 0.00 0.00 0.00 90 1013.7
20260904115959 25 149 11.3 16.1 0.00 0.00 0.00 90 1013.7
20260904115459 25 146 12.9 16.1 0.00 0.00 0.00 90 1013.6
20260904114959 25 127 11.3 14.5 0.00 0.00 0.00 90 1013.7
20260904114529 25 136 12.9 14.5 0.00 0.00 0.00 90 1013.7
20260904113959 25 131 11.3 14.5 0.00 0.00 0.00 89 1013.7
20260904113529 25 123 14.5 14.5 0.00 0.00 0.00 89 1013.7
20260904113029 25 125 11.3 12.9 0.00 0.00 0.00 88 1013.7
20260904111959 25 138 9.7 14.5 0.00 0.00 0.00 88 1013.5
20260904111459 25 156 12.9 14.5 0.00 0.00 0.00 88 1013.5
20260904110959 26 149 12.9 16.1 0.00 0.00 0.00 87 1013.5
20260904110458 26 145 11.3 16.1 0.00 0.00 0.00 87 1013.6
20260904105958 26 145 11.3 17.7 0.00 0.00 0.00 87 1013.6
20260904105459 26 139 16.1 17.7 0.00 0.00 0.00 87 1013.7
20260904104958 26 134 12.9 17.7 0.00 0.00 0.00 86 1013.7
20260904104458 26 145 17.7 17.7 0.00 0.00 0.00 86 1013.6
20260904103458 26 160 11.3 17.7 0.00 0.00 0.00 86 1013.5
20260904102959 26 153 12.9 17.7 0.00 0.00 0.00 86 1013.4
20260904102459 26 162 16.1 17.7 0.00 0.00 0.00 86 1013.4
20260904101958 26 150 12.9 17.7 0.00 0.00 0.00 86 1013.4
20260904101459 26 160 16.1 17.7 0.00 0.00 0.00 86 1013.4
20260904100958 26 156 11.3 17.7 0.00 0.00 0.00 86 1013.4
20260904100458 26 159 14.5 17.7 0.00 0.00 0.00 85 1013.4
20260904100028 26 154 12.9 16.1 0.00 0.00 0.00 85 1013.4
20260904095459 26 148 11.3 17.7 0.00 0.00 0.00 85 1013.5
20260904094958 26 152 11.3 17.7 0.00 0.00 0.00 85 1013.4
20260904093958 26 131 11.3 19.3 0.00 0.00 0.00 84 1013.4
20260904093529 26 131 11.3 14.5 0.00 0.00 0.00 84 1013.4
20260904092958 26 131 12.9 17.7 0.00 0.00 0.00 83 1013.3
20260904092458 26 156 9.7 17.7 0.00 0.00 0.00 83 1013.3
20260904091958 26 192 11.3 17.7 0.00 0.00 0.00 83 1013.2
20260904091458 26 170 8.0 17.7 0.00 0.00 0.00 83 1013.2
20260904090958 26 163 14.5 19.3 0.00 0.00 0.00 83 1013.2
20260904090458 26 172 16.1 19.3 0.00 0.00 0.00 83 1013.2
20260904085958 26 158 8.0 17.7 0.00 0.00 0.00 83 1013.2
20260904085458 26 158 12.9 19.3 0.00 0.00 0.00 83 1013.2
20260904084958 26 165 11.3 19.3 0.00 0.00 0.00 82 1013.2
20260904084458 26 177 12.9 17.7 0.00 0.00 0.00 82 1013.2
20260904083957 26 187 9.7 17.7 0.00 0.00 0.00 82 1013.2
20260904082957 26 144 11.3 17.7 0.00 0.00 0.00 81 1013.2
20260904082457 26 151 11.3 17.7 0.00 0.00 0.00 81 1013.2
20260904081958 26 149 11.3 16.1 0.00 0.00 0.00 81 1013.2
20260904081457 26 158 12.9 16.1 0.00 0.00 0.00 81 1013.2
20260904080958 26 156 8.0 16.1 0.00 0.00 0.00 81 1013.2
20260904080457 26 160 11.3 16.1 0.00 0.00 0.00 80 1013.2
20260904080027 26 166 12.9 16.1 0.00 0.00 0.00 80 1013.2
20260904075528 26 165 11.3 14.5 0.00 0.00 0.00 80 1013.2
20260904075027 26 178 9.7 16.1 0.00 0.00 0.00 80 1013.2
20260904074528 26 197 9.7 16.1 0.00 0.00 0.00 80 1013.2
20260904073957 26 141 8.0 14.5 0.00 0.00 0.00 79 1013.2
20260904073458 26 150 9.7 14.5 0.00 0.00 0.00 79 1013.2
20260904072958 26 135 6.4 16.1 0.00 0.00 0.00 79 1013.3
20260904071957 26 178 8.0 19.3 0.00 0.00 0.00 79 1013.4
20260904071457 26 166 17.7 19.3 0.00 0.00 0.00 79 1013.4
20260904070957 26 172 14.5 17.7 0.00 0.00 0.00 78 1013.4
20260904070027 26 145 11.3 16.1 0.00 0.00 0.00 76 1013.5
20260904065457 26 149 12.9 14.5 0.00 0.00 0.00 76 1013.5
20260904064957 26 149 12.9 19.3 0.00 0.00 0.00 75 1013.5
20260904064457 26 151 14.5 19.3 0.00 0.00 0.00 75 1013.5
20260904062957 26 149 14.5 19.3 0.00 0.00 0.00 74 1013.5
20260904062527 26 154 16.1 17.7 0.00 0.00 0.00 74 1013.5
20260904062026 26 140 14.5 16.1 0.00 0.00 0.00 74 1013.5
20260904061526 26 139 14.5 16.1 0.00 0.00 0.00 74 1013.5
20260904060526 26 154 12.9 14.5 0.00 0.00 0.00 74 1013.5
20260904060026 26 125 11.3 14.5 0.00 0.00 0.00 74 1013.5
20260904055526 26 151 12.9 14.5 0.00 0.00 0.00 74 1013.6
20260904054956 26 128 9.7 17.7 0.00 0.00 0.00 74 1013.6
20260904054457 26 145 11.3 17.7 0.00 0.00 0.00 73 1013.6
20260904053956 26 154 14.5 17.7 0.00 0.00 0.00 73 1013.5
20260904053456 26 154 16.1 17.7 0.00 0.00 0.00 73 1013.5
20260904052957 26 141 17.7 19.3 0.00 0.00 0.00 73 1013.6
20260904052456 26 144 12.9 19.3 0.00 0.00 0.00 73 1013.6
20260904051956 26 146 14.5 17.7 0.00 0.00 0.00 73 1013.6
20260904051456 26 161 14.5 19.3 0.00 0.00 0.00 73 1013.6
20260904050956 26 145 17.7 19.3 0.00 0.00 0.00 73 1013.4
20260904050456 26 129 19.3 19.3 0.00 0.00 0.00 73 1013.4
20260904050029 26 133 14.5 19.3 0.00 0.00 0.00 73 1013.4
20260904045458 26 137 11.3 19.3 0.00 0.00 0.00 72 1013.4
20260904044955 26 127 16.1 20.9 0.00 0.00 0.00 72 1013.4
20260904044456 27 131 14.5 20.9 0.00 0.00 0.00 72 1013.3
20260904043527 27 0 0.0 24.1 0.00 0.00 0.00 70 1013.2
20260904043025 27 137 17.7 22.5 0.00 0.00 0.00 70 1013.2
20260904042456 27 0 0.0 20.9 0.00 0.00 0.00 70 1013.2
20260904041955 27 142 17.7 20.9 0.00 0.00 0.00 70 1013.2
20260904041455 27 139 16.1 20.9 0.00 0.00 0.00 69 1013.2
20260904040525 27 0 0.0 20.9 0.00 0.00 0.00 70 1013.2
20260904040025 27 141 14.5 17.7 0.00 0.00 0.00 71 1013.3
20260904035525 27 134 14.5 24.1 0.00 0.00 0.00 72 1013.4
20260904035025 27 136 16.1 24.1 0.00 0.00 0.00 72 1013.4
20260904034526 27 142 19.3 20.9 0.00 0.00 0.00 72 1013.3
20260904034024 27 137 17.7 19.3 0.00 0.00 0.00 73 1013.4
20260904033025 27 156 14.5 20.9 0.00 0.00 0.00 73 1013.3
20260904032524 27 156 19.3 20.9 0.00 0.00 0.00 72 1013.3
20260904031025 28 0 0.0 20.9 0.00 0.00 0.00 72 1013.2
20260904030526 28 0 0.0 19.3 0.00 0.00 0.00 72 1013.2
20260904030024 28 0 0.0 0.0 0.00 0.00 0.00 71 1013.2
20260904025524 28 0 0.0 0.0 0.00 0.00 0.00 71 1013.1
20260904025024 28 0 0.0 20.9 0.00 0.00 0.00 70 1013.0
20260904024456 28 0 0.0 25.7 0.00 0.00 0.00 69 1012.9
20260904024024 28 0 0.0 25.7 0.00 0.00 0.00 66 1013.0
20260904022955 29 0 0.0 25.7 0.00 0.00 0.00 65 1012.7
20260904022456 29 119 22.5 25.7 0.00 0.00 0.00 64 1012.6
20260904022024 29 123 19.3 24.1 0.00 0.00 0.00 64 1012.6
20260904021526 29 0 0.0 24.1 0.00 0.00 0.00 64 1012.5
20260904020524 29 120 24.1 25.7 0.00 0.00 0.00 64 1012.2
20260904020025 30 0 0.0 24.1 0.00 0.00 0.00 64 1012.1
20260904014524 30 121 24.1 25.7 0.00 0.00 0.00 64 1011.8
20260904014023 30 132 19.3 25.7 0.00 0.00 0.00 64 1011.8
20260904013525 30 119 22.5 27.4 0.00 0.00 0.00 64 1011.7
20260904012026 30 121 24.1 29.0 0.00 0.00 0.00 63 1011.5
20260904011023 30 0 0.0 29.0 0.00 0.00 0.00 63 1011.4
20260904010454 30 0 0.0 30.6 0.00 0.00 0.00 63 1011.5
20260904005953 30 123 22.5 30.6 0.00 0.00 0.00 62 1011.4
20260904005525 30 0 0.0 30.6 0.00 0.00 0.00 62 1011.3
20260904004955 30 139 17.7 25.7 0.00 0.00 0.00 62 1011.3
20260904004454 31 152 16.1 25.7 0.00 0.00 0.00 62 1011.4
20260904004025 31 141 17.7 25.7 0.00 0.00 0.00 62 1011.3
20260904003523 31 132 20.9 25.7 0.00 0.00 0.00 62 1011.3
20260904002953 31 137 22.5 25.7 0.00 0.00 0.00 61 1011.3
20260904002023 31 132 16.1 33.8 0.00 0.00 0.00 61 1011.2
20260904000523 31 130 14.5 27.4 0.00 0.00 0.00 61 1011.1